Location: Hains Lake
(37.8540°N, 99.8578°W)
Time: 05:08:30
(UTC+00:00)

Tiros 1 despin weight - Pass Details

Date: 20 April 2021
Orbit: 593 x 642 km, 48.2° (Epoch: 07 May)

Event Time Altitude Azimuth Distance (km) Brightness Sun altitude
Rises 18:39:01 0° 294° (WNW) 2,847 ? 63.9°
Reaches altitude 10° 18:41:35 10° 282° (WNW) 1,934 ? 63.9°
Maximum altitude 18:45:16 26° 225° (SW) 1,178 ? 63.9°
Drops below altitude 10° 18:48:56 10° 169° (SSE) 1,913 ? 63.8°
Sets 18:51:28 0° 156° (SSE) 2,808 ? 63.8°
